Weather Roundup
Issued by NWS Springfield, MO

Home | Current Version | Previous Version | Text Only | Print | Product List | Glossary On
Versions: 1 2 3 4 5 6 7 8 9 10 11 12 13 14 15 16 17 18 19 20 21 22 23 24 25 26 27 28 29 30 31 32 33 34 35 36 37 38 39 40 41 42 43 44 45 46 47 48 49 50
000
NZUS99 KSGF 031910
HRRSGF

HOURLY WEATHER
NATIONAL WEATHER SERVICE SPRINGFIELD MO
200 PM CDT THU SEP 03 2015

......SGF CWA......

CITY           SKY/WX    TMP DP  RH WIND       PRES   REMARKS
SPRINGFIELD    MOSUNNY   88  66  48 S10       30.00F HX  90
JOPLIN         MOSUNNY   88  69  53 SW9       29.98F HX  92
WEST PLAINS    MOSUNNY   89  65  44 VRB6      30.03F HX  91
ROLLA          PTSUNNY   89  64  43 SW10      29.98F HX  90
OSAGE BEACH    MOSUNNY   91  64  40 SW7       29.99F HX  93
BRANSON        MOSUNNY   88  66  48 S10       30.02F HX  90

......SURROUNDING SGF CWA......

CITY           SKY/WX    TMP DP  RH WIND       PRES   REMARKS
CHANUTE        SUNNY     88  69  53 S15       29.96F HX  92
PARSONS        SUNNY     87  72  60 S10G18    29.97F HX  93
COFFEYVILLE    SUNNY     87  72  60 S12       29.96F HX  93
EMPORIA        SUNNY     91  67  44 S20G26    29.91F HX  94
GROVE OK       MOSUNNY   90  68  48 SW12      29.99F HX  93
ROGERS AR      PTSUNNY   86  68  54 VRB3      30.02F
SILOAM SPRINGS MOSUNNY   88  66  48 S7        29.99F HX  90
HARRISON AR    MOSUNNY   88  66  48 S7        30.02F HX  90
NEAR YELLVILLE SUNNY     91  64  40 S5        29.98F HX  93

......KANSAS AND MISSOURI......

CITY           SKY/WX    TMP DP  RH WIND       PRES   REMARKS
KANSAS CTY INT PTSUNNY   91  68  46 S16G22    29.92F HX  95
DOWNTOWN KC    SUNNY     91  68  46 SW12      29.91F HX  95
COLUMBIA       SUNNY     89  69  51 SW9       29.97F HX  93
SEDALIA        MOSUNNY   93  67  42 S10       29.98F HX  96
ST JOSEPH      SUNNY     90  71  53 S13       29.89F HX  96
ST LOUIS       MOSUNNY   92  66  42 W12       29.97F HX  94
SPIRIT OF STL  MOSUNNY   90  71  53 SW7       29.95F HX  96
KIRKSVILLE     SUNNY     91  67  44 S10       29.95F HX  94
WICHITA        MOSUNNY   93  62  35 S25G32    29.88F HX  93
TOPEKA         SUNNY     91  66  43 S14       29.89F HX  93
OLATHE         SUNNY     87  68  52 S13       29.93F HX  90

......TENNESSEE......

CITY           SKY/WX    TMP DP  RH WIND       PRES   REMARKS
MEMPHIS        PTSUNNY   92  69  47 S5        29.99F HX  97
NASHVILLE      MOSUNNY   92  61  35 VRB6      29.99F HX  92

......ARKANSAS.......

CITY           SKY/WX    TMP DP  RH WIND       PRES   REMARKS
FAYETTEVILLE   MOSUNNY   86  69  56 S8        30.01F HX  90
FT SMITH       SUNNY     90  68  48 E6        29.96F HX  94
LITTLE ROCK    MOSUNNY   95  68  41 SE6       29.97F HX  99

......OKLAHOMA.......

CITY           SKY/WX    TMP DP  RH WIND       PRES   REMARKS
TULSA          MOSUNNY   90  68  48 S9G20     29.94F HX  94
PONCA CITY     SUNNY     92  66  42 S10G20    29.92F HX  94
MCALESTER      SUNNY     91  66  43 VRB5      29.97F HX  93
OKLAHOMA CITY  MOSUNNY   91  64  40 S13G23    29.95F HX  92

......IOWA............

CITY           SKY/WX    TMP DP  RH WIND       PRES   REMARKS
DES MOINES     MOSUNNY   88  72  58 S10       29.88F HX  94
QUAD CITIES    MOSUNNY   90  70  51 W8        29.91F HX  95

......ILLINOIS........

CITY           SKY/WX    TMP DP  RH WIND       PRES   REMARKS
QUINCY         SUNNY     92  66  42 W12       29.94F HX  94
CHICAGO        MOSUNNY   89  68  49 SW12      29.91F HX  93



USA.gov is the U.S. government's official web portal to all federal, state and local government web resources and services.